This is the latest recevied weather packets stored in our database for station/object W4CKA. If no packets are shown the sender has not sent any weather packets the latest 10 day(s).
| Time | Temp. | Humidity | Pressure | Rain* | Wind** | Luminosity | Snow |
|---|---|---|---|---|---|---|---|
| 1777668723 | 20° C | 45% | 1054 hPa | 0 mm | - | 236 W/m² | - |
| 1777668122 | 20.56° C | 41% | 1054 hPa | 0 mm | - | 477 W/m² | - |
| 1777667521 | 20° C | 43% | 1054.1 hPa | 0 mm | - | 459 W/m² | - |
| 1777666920 | 19.44° C | 44% | 1054.3 hPa | 0 mm | - | 331 W/m² | - |
| 1777666320 | 20° C | 38% | 1054.2 hPa | 0 mm | - | 376 W/m² | - |
| 1777665714 | 20° C | 39% | 1054.2 hPa | 0 mm | - | 509 W/m² | - |
| 1777665113 | 20.56° C | 38% | 1054.4 hPa | 0 mm | - | 565 W/m² | - |
| 1777664510 | 20° C | 45% | 1054.5 hPa | 0 mm | - | 486 W/m² | - |
| 1777663906 | 20° C | 43% | 1054.5 hPa | 0 mm | - | 546 W/m² | - |
| 1777663306 | 20° C | 42% | 1054.6 hPa | 0 mm | - | 653 W/m² | - |
| 1777662707 | 20.56° C | 44% | 1054.6 hPa | 0 mm | - | 551 W/m² | - |
| 1777662104 | 20.56° C | 44% | 1054.8 hPa | 0 mm | - | 454 W/m² | - |
| 1777661502 | 20.56° C | 44% | 1054.9 hPa | 0 mm | - | 532 W/m² | - |
| 1777660899 | 18.89° C | 42% | 1055 hPa | 0 mm | - | 530 W/m² | - |
| 1777660298 | 19.44° C | 42% | 1055.3 hPa | 0 mm | - | 590 W/m² | - |
| 1777659697 | 20° C | 44% | 1055.2 hPa | 0 mm | - | 606 W/m² | - |
| 1777659097 | 19.44° C | 47% | 1055.3 hPa | 0 mm | - | 637 W/m² | - |
| 1777658497 | 20° C | 47% | 1055.3 hPa | 0 mm | - | 635 W/m² | - |
| 1777657897 | 19.44° C | 46% | 1055.3 hPa | 0 mm | - | 663 W/m² | - |
| 1777657297 | 18.89° C | 43% | 1055.3 hPa | 0 mm | - | 702 W/m² | - |
| 1777656697 | 18.33° C | 49% | 1055.4 hPa | 0 mm | - | 681 W/m² | - |
| 1777656094 | 18.33° C | 43% | 1055.5 hPa | 0 mm | - | 461 W/m² | - |
| 1777655493 | 18.89° C | 48% | 1055.8 hPa | 0 mm | - | 685 W/m² | - |
| 1777654893 | 18.89° C | 46% | 1055.9 hPa | 0 mm | - | 678 W/m² | - |
| 1777654287 | 18.89° C | 52% | 1056 hPa | 0 mm | - | 684 W/m² | - |
* Rain latest hour (hover to see other rain measurements)
** Current wind speed in m/s (hover to see current wind gust speed)